Time,TemperatureF,DewpointF,PressureIn,WindDirection,WindDirectionDegrees,WindSpeedMPH,WindSpeedGustMPH,Humidity,HourlyPrecipIn,Conditions,Clouds,dailyrainin,SoftwareType,DateUTC
2013-02-27 00:13:00,40.7,40.0,30.16,NNE,33,0.0,3.0,96,0.00,,,0.00,weatherlink.com 1.10,2013-02-27 08:13:00,
2013-02-27 00:28:00,40.4,39.0,30.16,ENE,72,3.0,6.0,96,0.00,,,0.00,weatherlink.com 1.10,2013-02-27 08:28:00,
2013-02-27 00:43:00,40.0,39.0,30.17,ENE,72,3.0,3.0,96,0.00,,,0.00,weatherlink.com 1.10,2013-02-27 08:43:00,
2013-02-27 00:58:00,39.5,39.0,30.18,ENE,72,1.0,5.0,96,0.00,,,0.00,weatherlink.com 1.10,2013-02-27 08:58:00,
2013-02-27 01:13:00,39.2,38.0,30.18,ENE,72,1.0,5.0,96,0.00,,,0.00,weatherlink.com 1.10,2013-02-27 09:13:00,
2013-02-27 01:28:00,39.1,38.0,30.19,ENE,72,2.0,3.0,97,0.00,,,0.00,weatherlink.com 1.10,2013-02-27 09:28:00,
2013-02-27 01:43:00,39.1,38.0,30.19,ENE,74,1.0,4.0,97,0.00,,,0.00,weatherlink.com 1.10,2013-02-27 09:43:00,
2013-02-27 01:58:00,39.3,39.0,30.19,NNE,32,0.0,5.0,97,0.00,,,0.00,weatherlink.com 1.10,2013-02-27 09:58:00,
2013-02-27 02:13:00,39.3,39.0,30.19,ENE,72,0.0,5.0,97,0.00,,,0.00,weatherlink.com 1.10,2013-02-27 10:13:00,
2013-02-27 02:28:00,39.2,39.0,30.19,ENE,62,0.0,3.0,97,0.00,,,0.00,weatherlink.com 1.10,2013-02-27 10:28:00,
2013-02-27 02:43:00,39.1,38.0,30.20,NE,36,0.0,2.0,97,0.00,,,0.00,weatherlink.com 1.10,2013-02-27 10:43:00,
2013-02-27 02:58:00,39.1,38.0,30.20,NNE,20,1.0,2.0,97,0.00,,,0.00,weatherlink.com 1.10,2013-02-27 10:58:00,
2013-02-27 03:13:00,39.0,38.0,30.20,ENE,69,3.0,6.0,97,0.00,,,0.00,weatherlink.com 1.10,2013-02-27 11:13:00,
2013-02-27 03:28:00,39.1,39.0,30.21,ESE,116,1.0,6.0,98,0.00,,,0.00,weatherlink.com 1.10,2013-02-27 11:28:00,
2013-02-27 03:43:00,39.1,38.0,30.21,East,98,0.0,3.0,97,0.00,,,0.00,weatherlink.com 1.10,2013-02-27 11:43:00,
2013-02-27 03:58:00,38.9,38.0,30.21,East,98,1.0,3.0,98,0.00,,,0.00,weatherlink.com 1.10,2013-02-27 11:58:00,
2013-02-27 04:13:00,38.8,38.0,30.22,ESE,112,2.0,3.0,98,0.00,,,0.00,weatherlink.com 1.10,2013-02-27 12:13:00,
2013-02-27 04:28:00,38.8,38.0,30.23,NE,50,1.0,3.0,98,0.00,,,0.00,weatherlink.com 1.10,2013-02-27 12:28:00,
2013-02-27 04:43:00,38.8,38.0,30.24,NE,50,0.0,2.0,98,0.00,,,0.00,weatherlink.com 1.10,2013-02-27 12:43:00,
2013-02-27 04:58:00,38.8,38.0,30.24,East,93,1.0,4.0,98,0.00,,,0.00,weatherlink.com 1.10,2013-02-27 12:58:00,
2013-02-27 05:13:00,38.9,38.0,30.25,East,93,2.0,3.0,98,0.00,,,0.00,weatherlink.com 1.10,2013-02-27 13:13:00,
2013-02-27 05:28:00,38.8,38.0,30.25,East,93,2.0,4.0,98,0.00,,,0.00,weatherlink.com 1.10,2013-02-27 13:28:00,
2013-02-27 05:43:00,39.1,39.0,30.26,East,93,0.0,3.0,98,0.00,,,0.00,weatherlink.com 1.10,2013-02-27 13:43:00,
2013-02-27 05:58:00,39.2,39.0,30.26,ENE,61,2.0,3.0,98,0.00,,,0.00,weatherlink.com 1.10,2013-02-27 13:58:00,
2013-02-27 06:14:00,39.2,39.0,30.27,ENE,61,2.0,3.0,98,0.00,,,0.00,weatherlink.com 1.10,2013-02-27 14:14:00,
2013-02-27 06:29:00,39.3,39.0,30.27,ENE,61,0.0,3.0,98,0.00,,,0.00,weatherlink.com 1.10,2013-02-27 14:29:00,
2013-02-27 06:44:00,39.4,39.0,30.27,ENE,61,2.0,4.0,98,0.00,,,0.00,weatherlink.com 1.10,2013-02-27 14:44:00,
2013-02-27 06:59:00,39.4,39.0,30.27,ENE,61,0.0,2.0,98,0.00,,,0.00,weatherlink.com 1.10,2013-02-27 14:59:00,
2013-02-27 07:14:00,39.3,39.0,30.27,ENE,61,1.0,2.0,98,0.00,,,0.00,weatherlink.com 1.10,2013-02-27 15:14:00,
2013-02-27 07:29:00,39.1,39.0,30.27,ENE,61,1.0,2.0,98,0.00,,,0.00,weatherlink.com 1.10,2013-02-27 15:29:00,
2013-02-27 07:44:00,39.3,39.0,30.27,NE,56,2.0,3.0,98,0.00,,,0.00,weatherlink.com 1.10,2013-02-27 15:44:00,
2013-02-27 07:59:00,39.4,39.0,30.28,East,85,0.0,2.0,98,0.00,,,0.00,weatherlink.com 1.10,2013-02-27 15:59:00,
2013-02-27 08:14:00,39.4,39.0,30.28,East,85,0.0,2.0,98,0.00,,,0.00,weatherlink.com 1.10,2013-02-27 16:14:00,
2013-02-27 08:29:00,39.6,39.0,30.27,East,85,0.0,2.0,98,0.00,,,0.00,weatherlink.com 1.10,2013-02-27 16:29:00,
2013-02-27 08:44:00,40.0,40.0,30.28,SE,127,0.0,1.0,98,0.00,,,0.00,weatherlink.com 1.10,2013-02-27 16:44:00,
2013-02-27 08:59:00,40.3,40.0,30.27,North,358,0.0,3.0,99,0.00,,,0.00,weatherlink.com 1.10,2013-02-27 16:59:00,
2013-02-27 09:14:00,40.6,40.0,30.27,ESE,106,0.0,3.0,99,0.00,,,0.00,weatherlink.com 1.10,2013-02-27 17:14:00,
2013-02-27 09:29:00,41.0,41.0,30.27,East,98,0.0,2.0,99,0.00,,,0.00,weatherlink.com 1.10,2013-02-27 17:29:00,
2013-02-27 09:44:00,41.2,41.0,30.27,NE,35,0.0,6.0,99,0.00,,,0.00,weatherlink.com 1.10,2013-02-27 17:44:00,
2013-02-27 09:59:00,41.8,42.0,30.27,NNE,28,0.0,3.0,99,0.00,,,0.00,weatherlink.com 1.10,2013-02-27 17:59:00,
2013-02-27 10:14:00,42.0,42.0,30.28,East,87,0.0,5.0,99,0.00,,,0.00,weatherlink.com 1.10,2013-02-27 18:14:00,
2013-02-27 10:29:00,42.1,42.0,30.29,North,350,2.0,3.0,99,0.00,,,0.00,weatherlink.com 1.10,2013-02-27 18:29:00,
2013-02-27 10:44:00,42.2,42.0,30.29,ESE,121,0.0,3.0,98,0.00,,,0.00,weatherlink.com 1.10,2013-02-27 18:44:00,
2013-02-27 10:59:00,42.5,42.0,30.29,ESE,104,1.0,2.0,97,0.00,,,0.00,weatherlink.com 1.10,2013-02-27 18:59:00,
2013-02-27 11:14:00,42.9,42.0,30.29,SE,133,1.0,6.0,96,0.00,,,0.00,weatherlink.com 1.10,2013-02-27 19:14:00,
2013-02-27 11:29:00,43.3,42.0,30.29,North,350,0.0,2.0,94,0.00,,,0.00,weatherlink.com 1.10,2013-02-27 19:29:00,
2013-02-27 11:44:00,43.6,42.0,30.30,NE,50,0.0,2.0,93,0.00,,,0.00,weatherlink.com 1.10,2013-02-27 19:44:00,
2013-02-27 11:59:00,44.1,41.0,30.30,SE,131,0.0,3.0,90,0.00,,,0.00,weatherlink.com 1.10,2013-02-27 19:59:00,
2013-02-27 12:14:00,44.9,41.0,30.29,NW,311,0.0,5.0,87,0.00,,,0.00,weatherlink.com 1.10,2013-02-27 20:14:00,
2013-02-27 12:29:00,45.8,41.0,30.27,WNW,286,1.0,4.0,83,0.00,,,0.00,weatherlink.com 1.10,2013-02-27 20:29:00,
2013-02-27 12:44:00,46.2,41.0,30.28,ESE,119,0.0,4.0,83,0.00,,,0.00,weatherlink.com 1.10,2013-02-27 20:44:00,
2013-02-27 12:59:00,46.5,41.0,30.27,NE,47,0.0,2.0,81,0.00,,,0.00,weatherlink.com 1.10,2013-02-27 20:59:00,
2013-02-27 13:14:00,46.7,42.0,30.27,North,359,2.0,3.0,83,0.00,,,0.00,weatherlink.com 1.10,2013-02-27 21:14:00,
2013-02-27 13:29:00,46.8,40.0,30.26,South,184,0.0,4.0,78,0.00,,,0.00,weatherlink.com 1.10,2013-02-27 21:29:00,
2013-02-27 13:44:00,46.7,41.0,30.28,NNW,329,0.0,3.0,81,0.00,,,0.00,weatherlink.com 1.10,2013-02-27 21:44:00,
2013-02-27 13:59:00,46.2,39.0,30.28,West,279,0.0,5.0,77,0.00,,,0.00,weatherlink.com 1.10,2013-02-27 21:59:00,
2013-02-27 14:14:00,45.9,40.0,30.28,SSW,202,0.0,1.0,81,0.00,,,0.00,weatherlink.com 1.10,2013-02-27 22:14:00,
2013-02-27 14:29:00,45.6,39.0,30.28,SSW,202,0.0,2.0,78,0.00,,,0.00,weatherlink.com 1.10,2013-02-27 22:29:00,
2013-02-27 14:44:00,45.5,40.0,30.28,SSW,202,0.0,1.0,82,0.00,,,0.00,weatherlink.com 1.10,2013-02-27 22:44:00,
2013-02-27 14:59:00,45.5,42.0,30.27,SSW,202,0.0,0.0,86,0.00,,,0.00,weatherlink.com 1.10,2013-02-27 22:59:00,
2013-02-27 15:14:00,45.4,41.0,30.27,SSW,202,0.0,0.0,85,0.00,,,0.00,weatherlink.com 1.10,2013-02-27 23:14:00,
2013-02-27 15:29:00,45.2,41.0,30.26,SSW,202,0.0,0.0,85,0.00,,,0.00,weatherlink.com 1.10,2013-02-27 23:29:00,
2013-02-27 15:44:00,45.1,42.0,30.26,SSW,202,0.0,0.0,87,0.00,,,0.00,weatherlink.com 1.10,2013-02-27 23:44:00,
2013-02-27 15:59:00,44.9,41.0,30.26,SSW,202,0.0,0.0,87,0.00,,,0.00,weatherlink.com 1.10,2013-02-27 23:59:00,
2013-02-27 16:14:00,44.7,41.0,30.26,SSW,202,0.0,0.0,87,0.00,,,0.00,weatherlink.com 1.10,2013-02-28 00:14:00,
2013-02-27 16:29:00,44.5,41.0,30.26,SSW,202,0.0,0.0,88,0.00,,,0.00,weatherlink.com 1.10,2013-02-28 00:29:00,
2013-02-27 16:44:00,44.4,41.0,30.28,SSW,202,0.0,1.0,86,0.00,,,0.00,weatherlink.com 1.10,2013-02-28 00:44:00,
2013-02-27 16:59:00,44.4,41.0,30.27,SSW,202,0.0,2.0,86,0.00,,,0.00,weatherlink.com 1.10,2013-02-28 00:59:00,
2013-02-27 17:14:00,44.3,40.0,30.27,NW,313,1.0,3.0,85,0.00,,,0.00,weatherlink.com 1.10,2013-02-28 01:14:00,
2013-02-27 17:29:00,44.2,40.0,30.27,WNW,290,0.0,1.0,85,0.00,,,0.00,weatherlink.com 1.10,2013-02-28 01:29:00,
2013-02-27 17:44:00,44.0,39.0,30.27,WNW,296,0.0,5.0,83,0.00,,,0.00,weatherlink.com 1.10,2013-02-28 01:44:00,
2013-02-27 17:59:00,44.0,39.0,30.27,WNW,287,0.0,5.0,83,0.00,,,0.00,weatherlink.com 1.10,2013-02-28 01:59:00,
2013-02-27 18:14:00,43.8,40.0,30.27,WNW,287,0.0,1.0,85,0.00,,,0.00,weatherlink.com 1.10,2013-02-28 02:14:00,
2013-02-27 18:29:00,43.3,38.0,30.28,WNW,287,0.0,2.0,82,0.00,,,0.00,weatherlink.com 1.10,2013-02-28 02:29:00,
2013-02-27 18:44:00,42.9,39.0,30.27,WNW,287,0.0,1.0,85,0.00,,,0.00,weatherlink.com 1.10,2013-02-28 02:44:00,
2013-02-27 18:59:00,42.4,38.0,30.28,WNW,287,0.0,0.0,85,0.00,,,0.00,weatherlink.com 1.10,2013-02-28 02:59:00,
2013-02-27 19:14:00,42.0,38.0,30.29,WNW,287,0.0,0.0,87,0.00,,,0.00,weatherlink.com 1.10,2013-02-28 03:14:00,
2013-02-27 19:29:00,41.7,40.0,30.28,WNW,287,0.0,1.0,92,0.00,,,0.00,weatherlink.com 1.10,2013-02-28 03:29:00,
2013-02-27 19:44:00,41.4,38.0,30.28,WNW,287,0.0,1.0,87,0.00,,,0.00,weatherlink.com 1.10,2013-02-28 03:44:00,
2013-02-27 19:59:00,41.6,39.0,30.27,WNW,287,0.0,1.0,90,0.00,,,0.00,weatherlink.com 1.10,2013-02-28 03:59:00,
2013-02-27 20:20:00,41.8,40.0,30.27,WNW,287,0.0,0.0,92,0.00,,,0.00,weatherlink.com 1.10,2013-02-28 04:20:00,
2013-02-27 20:30:00,41.8,40.0,30.26,WNW,287,0.0,1.0,92,0.00,,,0.00,weatherlink.com 1.10,2013-02-28 04:30:00,
2013-02-27 20:44:00,41.8,39.0,30.27,WNW,287,0.0,1.0,91,0.00,,,0.00,weatherlink.com 1.10,2013-02-28 04:44:00,
2013-02-27 21:00:00,41.7,39.0,30.27,WNW,287,0.0,0.0,90,0.00,,,0.00,weatherlink.com 1.10,2013-02-28 05:00:00,
2013-02-27 21:15:00,41.5,39.0,30.27,WNW,287,0.0,0.0,91,0.00,,,0.00,weatherlink.com 1.10,2013-02-28 05:15:00,
2013-02-27 21:30:00,41.5,39.0,30.27,WNW,287,0.0,1.0,92,0.00,,,0.00,weatherlink.com 1.10,2013-02-28 05:30:00,
2013-02-27 21:45:00,41.6,39.0,30.27,NNE,24,1.0,3.0,90,0.00,,,0.00,weatherlink.com 1.10,2013-02-28 05:45:00,
2013-02-27 22:00:00,41.7,38.0,30.27,NE,48,0.0,3.0,88,0.00,,,0.00,weatherlink.com 1.10,2013-02-28 06:00:00,
2013-02-27 22:15:00,41.5,38.0,30.28,NE,48,2.0,3.0,88,0.00,,,0.00,weatherlink.com 1.10,2013-02-28 06:15:00,
2013-02-27 22:30:00,41.3,38.0,30.28,NE,48,0.0,1.0,89,0.00,,,0.00,weatherlink.com 1.10,2013-02-28 06:30:00,
2013-02-27 22:45:00,41.0,38.0,30.27,NE,48,0.0,1.0,89,0.00,,,0.00,weatherlink.com 1.10,2013-02-28 06:45:00,
2013-02-27 23:00:00,40.6,38.0,30.27,NE,48,0.0,1.0,89,0.00,,,0.00,weatherlink.com 1.10,2013-02-28 07:00:00,
2013-02-27 23:15:00,40.3,38.0,30.27,NE,48,0.0,1.0,90,0.00,,,0.00,weatherlink.com 1.10,2013-02-28 07:15:00,
2013-02-27 23:30:00,40.1,38.0,30.28,NE,48,0.0,0.0,90,0.00,,,0.00,weatherlink.com 1.10,2013-02-28 07:30:00,
2013-02-27 23:45:00,40.0,38.0,30.27,NE,48,0.0,1.0,91,0.00,,,0.00,weatherlink.com 1.10,2013-02-28 07:45:00,